Portada
METAR-TAF:

METAR-TAF

Aeroports :

Newport State Airport

Newport, Rhode Island, Estats Units d'Amèrica

latitud: 41-31-48N, longitud: 071-17-01W, altitud: 52 m

Observació

L'informe es va fer fa 59 minuts, a les 08:53 UTC
Vent 3 kt del Nord/Nord-Est
Temperatura 8°C
Humitat 100%
Pressió 1014 hPa
Visibilitat: 8.0 km
Cel clar
boirina

METAR: KUUU 290853Z AUTO 02003KT 5SM BR CLR 08/08 A2995 RMK AO2 SLP141 T00780078 55002

Hora: 05:52 (09:52 UTC)


TAF: manca

Observacions i pronòstics meteorològics de més de 4000 aeroports (METAR i TAF).

Les estacions disponibles són els punts grocs i vermells al mapa.

Posi el ratolí al punt desitjat per veure el nom de l'estació.

Feu clic per veure les observacions i els pronòstics meteorològics.

Per canviar el mapa: feu clic els botons verds amb una creu de color negre per apropar; al botó verd amb un guió per allunyar la imatge; o en les fletxes verdes per a mapes adjacents.


METAR-TAF: